SCP
0 0 0 0 0 0 0 0 0 0 0 0 0 0 0 0 0 0 0 -0 -0 -0 -0 -0 -0 0 0 0 -0 -0 -0 0 0 0 0 0 0 0 0 0 0 -0 0 0 0 0 0 0 0
0 0 0 0 0 0 0 0 0 0 0 0 0 0 0 0 0 0 0 -0 -0 -0 -0 -0 -0 -0 0 0 0 0 0 0 0 0 0 0 0 0 0 0 0 0 0 0 0 0 0 0 0
0 0 0 0 0 0 0 0 0 0 0 0 0 0 0 0 0 0 0 -0 -0 0 -0 -0 -0 -0 -0 -0 0 0 0 0 0 0 0 0 0 0 0 0 0 0 0 0 0 0 0 0 0
0 0 0 0 0 0 0 0 0 0 0 0 0 0 0 0 0 0 -0 -0 0 0 0 -0 -0 -0 -0 -0 -0 0 0 0 0 0 0 0 0 0 0 0 0 0 0 0 0 0 0 0 0
0 0 0 0 0 0 0 0 0 0 0 0 0 0 0 0 0 0 0 0 0 0 0 0 -0 -0 -0 -0 -0 -0 -0 0 0 0 0 0 0 0 0 0 0 0 0 0 0 0 0 0 0
0 0 0 0 0 0 0 0 0 0 0 0 0 0 0 0 0 0 0 0 0 0 0 0 -0 -0 -0 -0 -0 -0 -0 -0 -0 -0 -0 0 0 0 0 0 0 0 0 0 0 0 0 0 0
0 0 0 0 0 0 0 0 0 0 0 0 0 0 0 0 0 0 0 0 0 0 0 0 0 0 -0 -0 -0 -0 -0 -0 -0 -0 -0 -0 0 0 0 0 0 0 0 0 0 0 0 0 0
0 0 0 0 0 0 0 0 0 0 0 0 0 0 0 0 0 0 0 0 0 0 0 0 0 0 0 0 -0 -0 -0 -0 -0 -0 -0 -0 -0 0 0 0 0 0 0 0 0 0 0 0 0
0 0 0 0 0 0 0 0 0 0 0 0 0 0 0 0 0 0 0 0 0 0 0 0 0 0 0 0 0 0 -0 -0 -0 -0 -0 0 0 0 0 0 0 0 0 0 0 0 0 0 0
0 0 0 0 0 0 0 0 0 0 0 0 0 0 0 0 0 0 0 0 0 0 0 0 0 0 0 0 0 0 0 0 0 0 0 0 0 0 0 0 0 0 0 0 0 0 0 0 0
0 0 0 0 0 0 0 0 0 0 0 0 0 0 0 0 0 0 0 0 0 0 0 0 0 0 0 0 0 0 0 0 0 0 0 0 0 0 0 0 0 0 0 0 0 0 0 0 0
0 0 0 0 0 0 0 0 0 0 0 0 0 0 0 0 0 0 0 0 0 0 0 0 0 0 0 0 0 0 0 0 0 0 0 0 0 0 0 0 0 0 0 0 0 0 0 0 0
0 0 0 0 0 0 0 0 0 0 0 0 0 0 0 0 0 0 0 0 0 0 0 0 0 0 0 0 0 -0 0 0 0 0 0 0 0 0 0 0 0 0 0 0 0 0 0 0 0
0 0 0 0 0 0 0 0 0 0 0 0 0 0 0 0 0 0 0 0 0 0 0 0 0 0 0 0 0 0 0 0 0 0 0 0 0 0 0 0 0 0 0 0 0 0 0 0 0
0 0 0 -0 0 0 0 0 0 0 0 0 0 0 0 0 -0 0 0 -0 0 0 0 0 0 0 0 0 0 0 0 0 0 0 0 0 0 0 0 0 0 0 0 0 0 0 0 0 0
0 0 0 -0 0 0 -0 0 0 0 -0 -0 -0 -0 -0 -0 0 -0 -0 -0 0 0 0 0 0 0 0 0 0 0 0 0 0 0 0 0 0 0 0 0 0 0 0 0 0 0 0 0 0
0 -0 -0 0 0 0 0 -0 -0 0 0 0 0 0 0 0 -0 -0 -0 -0 -0 -0 0 0 0 0 0 0 0 0 0 0 0 0 0 0 0 0 0 0 0 0 0 0 0 0 0 0 0
-0 -0 0 0 -0 -0 -0 -0 -0 0 0 0 0 0 0 0 0 0 0 -0 -0 -0 -0 0 0 0 0 -0 -0 -0 -0 0 0 0 0 0 0 0 0 0 0 0 0 0 0 0 0 0 0
-0 -0 -0 -0 0 0 0 0 0 0 0 0 0 0 0 0 0 0 -0 -0 -0 -0 0 0 0 0 0 0 0 0 -0 -0 -0 -0 -0 -0 0 0 0 0 0 0 0 0 0 0 0 0 0
-0 -0 0 0 -0 0 0 0 0 0 -0 -0 -0 -0 -0 -0 0 -0 -0 -0 -0 -0 -0 -0 -0 0 -0 -0 -0 -0 -0 -0 -0 -0 -0 -0 -0 -0 -0 -0 -0 -0 -0 0 0 0 0 0 0
-0 -0 -0 0 -0 -0 0 0 0 0 0 -0 -0 -0 -0 -0 -0 -0 -0 -0 -0 -0 0 0 0 0 -0 -0 -0 -0 -0 -0 -0 -0 -0 -0 -0 -0 -0 -0 -0 -0 -0 -0 -0 -0 -0 0 0
0 -0 -0 -0 -0 0 -0 0 0 -0 0 -0 -0 -0 -0 0 -0 -0 -0 -0 -0 -0 -0 -0 -0 -0 -0 -0 -0 -0 -0 -0 -0 -0 -0 -0 -0 -0 -0 -0 -0 -0 -0 -0 -0 -0 -0 -0 0
0 0 0 -0 0 -0 -0 -0 0 -0 0 0 0 -0 0 0 0 0 0 -0 -0 -0 -0 -0 -0 -0 -0 -0 -0 -0 -0 -0 -0 -0 -0 -0 -0 -0 -0 -0 -0 -0 -0 -0 -0 -0 0 0 0
0 0 0 0 0 0 0 0 0 0 0 -0 -0 0 0 0 0 0 0 0 -0 -0 -0 -0 -0 -0 -0 -0 -0 -0 -0 -0 -0 -0 -0 -0 -0 -0 -0 -0 -0 -0 -0 -0 -0 -0 -0 0 0
0 0 0 0 0 0 0 0 0 0 0 -0 0 0 0 0 0 0 0 0 0 0 0 0 0 -0 0 -0 -0 -0 -0 -0 -0 -0 -0 -0 -0 -0 -0 -0 -0 -0 -0 -0 -0 -0 -0 0 0
0 0 0 0 0 0 0 0 0 0 0 0 0 0 0 0 0 0 0 0 0 0 0 0 0 0 0 0 0 0 0 0 -0 -0 -0 -0 -0 -0 -0 -0 -0 -0 -0 -0 -0 -0 -0 0 0
0 0 0 0 0 0 0 0 0 0 0 0 0 0 0 0 0 0 0 0 0 0 0 0 0 0 0 0 0 0 0 0 0 0 0 0 0 -0 -0 -0 -0 -0 -0 -0 -0 -0 -0 0 0
0 0 0 0 0 0 0 0 0 0 0 0 0 0 0 0 0 0 0 0 0 0 0 0 0 0 0 0 0 0 0 0 0 0 0 0 0 0 0 0 0 -0 -0 -0 -0 -0 -0 -0 0
0 0 0 0 0 0 0 0 0 0 0 0 0 0 0 0 0 0 0 0 0 0 0 0 0 0 0 0 0 0 0 0 0 0 0 0 0 0 0 0 0 0 0 0 0 0 0 -0 0
0 0 0 0 0 0 0 0 0 0 0 0 0 0 0 0 0 0 0 0 0 0 0 0 0 0 0 0 0 0 0 0 0 0 0 0 0 0 0 0 0 0 0 0 0 0 0 0 0
Wind_Speed_500mb
11 11 9 5 12 11 11 10 10 13 12 29 37 26 35 37 11 9 32 26 21 11 12 9 9 6 5 2 4 6 7 8 10 11 12 13 12 10 6 4 6 3 3 8 10 12 9 2 4
4 10 13 13 13 20 13 11 16 21 19 12 25 22 35 14 29 21 19 35 26 20 12 11 7 8 5 3 5 7 6 7 9 11 14 15 13 11 7 2 3 3 3 6 9 12 9 6 4
10 14 2 11 11 7 15 16 18 18 27 23 16 35 15 24 34 33 39 29 23 21 20 16 14 12 15 13 6 7 7 9 11 13 17 20 19 16 10 5 6 9 9 0 6 8 11 10 8
11 6 17 6 13 27 19 25 31 23 20 28 28 25 22 33 31 37 28 24 28 26 26 18 13 13 13 14 13 11 10 12 12 15 17 18 18 17 16 11 3 12 15 18 10 12 14 13 12
12 13 11 8 24 19 29 31 42 29 11 42 13 13 14 42 29 25 21 34 37 36 32 18 15 14 14 11 11 7 10 9 13 16 18 20 20 20 19 16 12 4 11 26 27 19 15 15 16
10 9 8 13 10 14 26 46 24 34 41 34 26 19 18 37 35 47 38 45 42 41 34 19 11 9 11 10 8 4 5 4 6 7 11 18 21 20 19 18 17 15 11 8 10 8 10 15 19
10 3 7 18 22 8 14 19 38 33 34 37 23 14 14 47 48 57 65 51 50 48 39 13 5 7 9 9 9 6 3 1 3 6 9 11 16 23 22 23 18 16 15 16 15 13 14 18 21
12 7 9 10 8 10 19 17 45 29 52 13 17 21 14 34 46 63 62 70 66 60 45 28 20 9 5 6 5 7 7 7 9 8 10 9 10 14 23 24 21 23 23 21 19 20 21 20 20
10 7 6 7 7 15 19 19 36 46 67 73 43 41 26 28 48 58 71 69 66 75 62 50 37 37 12 11 4 7 7 9 13 15 14 13 6 2 5 15 11 16 23 25 27 27 26 24 24
17 8 16 19 26 21 36 26 20 24 39 48 51 43 39 39 52 64 65 76 75 69 73 60 52 51 40 34 24 16 7 5 7 13 17 18 17 17 19 21 19 18 17 24 29 27 29 29 25
14 11 23 36 52 47 46 65 22 13 22 36 37 39 38 51 63 73 66 63 72 67 58 66 62 52 47 45 46 38 35 32 17 14 5 9 18 22 20 26 29 27 23 20 15 19 26 24 24
18 45 21 25 31 34 39 35 50 50 31 26 27 32 40 54 69 65 69 70 61 67 62 54 56 56 52 48 44 39 41 49 38 35 28 18 13 17 22 25 30 32 33 36 34 27 27 34 37
32 41 57 67 69 67 62 52 36 48 40 43 43 50 55 57 64 63 63 65 65 66 66 64 50 49 51 50 49 49 45 39 42 47 39 33 32 24 23 24 24 27 35 36 43 45 46 42 34
32 52 44 51 47 40 43 34 12 27 37 39 36 52 46 55 57 54 53 57 59 61 61 58 56 53 46 44 45 43 43 40 36 38 38 34 35 34 31 32 26 22 23 25 34 44 47 49 53
43 27 31 31 10 8 7 40 19 14 17 22 26 31 41 41 47 53 54 50 55 54 53 51 51 50 49 50 50 49 44 43 38 42 40 37 38 36 36 36 35 36 34 31 28 27 31 42 52
15 10 9 27 5 6 7 10 16 15 18 23 23 25 27 32 37 37 40 44 48 48 49 48 47 48 49 51 52 51 51 49 49 47 48 46 45 42 41 41 41 41 40 39 38 38 40 41 41
6 17 20 10 13 5 6 17 16 12 17 22 22 24 26 29 32 32 34 40 42 42 41 46 48 47 47 47 49 47 47 49 50 50 50 50 49 50 50 50 50 49 47 47 48 46 46 47 44
13 16 18 17 21 31 34 28 18 12 13 17 19 20 23 28 31 32 34 36 39 39 42 43 50 51 49 49 43 42 42 47 48 50 51 50 51 53 54 55 54 54 53 53 52 53 51 52 56
22 27 27 19 5 19 24 23 18 14 10 10 14 16 19 22 23 26 29 28 32 38 41 45 48 53 55 57 53 45 40 46 46 50 55 57 58 57 56 55 56 57 60 61 60 59 58 58 63
23 25 22 17 11 15 18 16 14 13 9 7 7 8 10 13 19 22 24 28 23 27 33 39 43 48 53 55 54 49 42 42 47 52 57 61 61 62 62 63 62 61 61 60 61 63 65 59 61
23 14 5 11 17 16 13 14 18 17 14 14 11 6 2 5 13 18 23 24 23 20 27 32 36 41 47 49 50 49 47 46 51 56 59 61 63 64 66 67 66 64 63 63 63 63 63 65 58
9 8 18 15 3 4 4 2 19 21 19 22 19 14 9 2 9 16 22 24 22 19 19 24 28 34 39 44 48 50 50 49 50 51 57 60 62 63 65 66 66 66 66 65 64 62 61 60 62
9 7 7 4 7 2 3 5 10 21 22 27 29 23 16 8 5 17 22 22 20 19 15 19 23 27 32 37 43 46 48 48 48 51 57 60 62 63 66 69 68 68 67 66 67 66 63 57 57
13 7 5 2 3 4 6 4 12 15 32 23 36 31 24 18 9 9 17 18 16 17 16 17 19 24 28 32 38 43 47 51 54 55 57 60 59 65 67 72 72 70 69 69 69 67 65 63 59
6 6 2 5 4 3 5 6 9 17 6 17 27 32 28 21 15 9 14 15 14 16 18 20 21 23 27 30 34 39 44 50 54 54 55 58 62 68 70 72 75 74 72 71 70 69 68 65 62
6 5 6 6 5 5 3 8 4 6 7 9 11 25 27 24 19 12 14 17 17 18 20 22 24 26 28 30 33 38 41 46 50 53 53 54 55 65 70 72 73 72 71 72 73 74 71 67 66
4 1 4 6 2 5 1 7 10 11 13 18 18 25 29 27 24 21 16 20 20 20 21 22 24 26 28 31 35 40 42 46 51 57 59 57 61 66 70 71 73 71 73 75 75 74 75 72 70
5 8 4 4 6 8 5 7 7 19 24 23 28 32 30 28 28 27 22 21 25 24 23 23 22 24 28 32 37 42 45 48 53 58 62 61 64 70 71 72 70 71 73 76 77 79 78 73 72
6 5 3 3 2 5 8 2 3 14 21 26 34 32 30 29 29 28 30 27 32 30 29 29 29 29 30 33 39 45 48 51 54 59 64 64 69 72 73 71 70 72 77 80 81 81 80 73 74
5 3 6 5 7 2 3 13 5 7 10 21 26 27 27 28 28 28 30 33 33 33 33 37 40 43 41 39 42 46 50 54 56 59 64 68 69 70 71 68 68 72 75 79 83 85 82 77 74
Wind_Direction_500mb
325 322 358 289 233 229 115 76 68 51 71 21 52 59 94 59 18 74 331 335 29 67 41 64 204 204 216 204 124 100 86 62 50 47 44 40 33 29 34 100 118 147 16 304 313 319 313 263 159
306 246 11 292 249 197 127 44 65 44 351 295 50 73 45 76 25 334 2 360 31 62 74 93 163 164 147 147 123 105 85 57 47 31 23 25 28 27 14 343 192 177 81 27 336 340 308 242 201
213 351 97 342 308 351 114 40 357 349 20 15 109 55 46 351 347 349 345 358 41 78 80 89 160 162 142 133 104 54 61 49 31 24 20 16 16 18 21 357 233 218 232 45 347 332 308 264 235
143 100 63 24 100 47 42 25 352 347 19 30 95 69 82 17 354 345 351 34 59 75 83 101 148 167 154 135 109 81 34 31 28 24 19 17 17 21 20 18 318 233 236 240 249 276 284 251 254
109 77 89 95 83 79 54 26 25 38 76 31 68 77 68 5 17 22 40 61 70 67 81 104 122 157 135 142 102 101 96 65 38 28 18 15 15 14 16 16 16 7 251 250 263 266 272 259 263
59 73 104 154 129 38 44 31 34 44 51 21 64 85 55 0 36 48 59 70 66 68 83 91 138 157 146 161 162 151 119 82 39 54 37 20 16 13 12 9 5 359 354 334 326 330 264 263 272
94 74 69 123 136 72 28 10 29 37 33 26 44 74 58 27 44 54 58 61 67 76 75 95 84 129 150 164 176 201 237 276 337 353 6 25 28 8 4 0 355 352 345 343 336 316 294 284 285
76 66 104 48 140 73 33 70 48 49 33 36 40 37 26 14 50 53 63 59 68 69 77 82 75 128 147 162 188 227 244 261 293 313 329 353 20 23 354 355 341 339 337 332 322 316 310 305 302
87 79 66 105 79 126 104 97 62 68 66 62 69 65 56 45 51 63 50 61 60 62 65 70 69 65 76 79 124 172 227 248 267 275 290 307 301 293 272 283 309 326 327 323 322 318 312 307 304
52 53 35 69 69 79 71 74 68 62 46 48 51 51 48 51 53 53 51 49 47 55 51 56 61 58 61 64 68 59 52 352 288 284 272 281 292 294 300 302 305 316 320 319 319 317 312 309 322
48 81 103 79 91 84 76 57 58 31 43 31 23 28 40 49 59 56 55 52 53 50 50 51 49 52 46 53 51 56 50 42 24 33 318 281 283 290 289 296 296 295 291 299 282 300 312 294 286
102 61 74 74 79 83 65 80 63 62 57 74 62 48 50 55 59 51 54 55 53 56 51 50 45 43 47 46 44 39 42 37 30 33 35 22 315 309 312 310 300 297 290 284 287 288 287 293 292
68 86 84 91 88 85 86 73 73 57 64 70 69 71 61 58 60 61 58 59 54 53 53 48 49 47 41 41 44 43 38 37 32 34 28 13 11 11 5 8 353 330 301 285 276 278 278 280 283
112 95 89 86 90 92 80 56 70 47 62 68 62 64 65 64 65 61 50 52 51 53 52 52 52 52 51 49 51 49 45 35 32 31 33 25 25 21 14 8 352 345 330 314 296 286 282 277 276
114 96 81 41 134 143 309 44 72 75 95 72 62 56 50 45 47 47 49 52 52 49 50 51 54 51 52 51 50 48 45 45 39 35 28 24 16 14 8 6 4 3 359 342 329 315 297 286 288
119 98 63 12 123 20 185 80 81 93 111 93 92 84 76 61 55 50 46 43 46 51 51 48 49 50 49 51 50 46 42 42 40 34 32 29 24 20 15 9 1 356 349 345 343 334 312 306 297
164 96 104 73 50 39 65 132 111 77 92 85 73 67 61 56 52 48 47 46 43 43 43 45 48 50 50 49 46 44 41 38 35 31 28 24 21 20 19 16 12 6 360 352 344 339 336 330 320
120 106 64 81 59 87 99 119 119 101 88 81 85 75 62 51 42 34 34 43 46 48 47 46 43 42 40 42 42 38 32 34 31 29 26 22 19 16 13 11 9 7 3 359 354 348 344 338 327
80 99 105 102 57 75 104 123 131 135 124 101 81 71 59 52 41 38 38 34 37 41 42 39 37 36 35 34 36 34 29 23 23 21 19 17 15 12 10 8 6 3 1 359 356 352 348 347 342
84 95 97 86 79 114 134 132 146 169 164 161 138 107 68 48 34 32 34 32 32 33 37 37 33 30 31 33 33 35 33 23 23 20 18 16 14 10 7 4 2 359 356 354 353 351 348 348 353
48 65 71 106 106 104 161 173 188 192 200 209 213 186 144 45 27 25 27 24 26 27 30 31 28 26 26 28 27 28 26 21 16 16 14 13 10 8 5 1 358 355 352 350 349 347 347 342 344
72 10 100 117 258 49 279 28 204 190 214 224 221 211 206 121 30 20 19 20 21 19 21 21 18 20 19 20 20 20 19 13 11 7 7 7 6 4 2 358 355 352 348 345 342 341 339 337 335
107 192 63 45 69 245 156 257 94 185 224 226 223 219 214 207 32 12 8 7 7 8 5 5 4 6 9 11 12 14 13 9 5 1 1 1 1 1 359 357 353 350 345 341 338 335 333 331 326
126 153 164 176 132 237 144 289 164 186 223 219 213 212 213 215 231 346 354 353 352 355 355 348 347 350 355 360 1 3 4 2 0 357 356 354 354 354 352 351 350 347 343 339 335 331 328 325 320
271 259 232 204 218 28 119 248 308 191 195 223 205 207 212 217 230 276 333 336 344 348 341 335 333 336 341 346 350 351 354 355 354 353 348 347 348 348 346 345 344 342 340 338 334 329 325 321 316
27 334 330 303 318 21 153 227 128 147 195 192 218 207 211 217 229 261 314 324 329 336 337 333 327 327 329 332 335 338 342 344 345 343 342 342 337 340 340 339 338 337 336 335 332 328 325 320 313
100 238 54 93 111 262 116 227 184 179 204 206 207 202 213 222 233 248 285 314 312 318 327 329 325 320 318 320 323 326 331 334 335 337 338 335 335 335 334 335 333 332 331 330 327 324 321 318 314
318 115 190 165 306 283 173 268 254 205 213 204 213 217 223 230 238 245 262 289 300 295 299 311 319 322 319 318 317 318 322 326 329 330 331 331 330 331 332 331 330 329 329 329 326 322 318 313 310
157 178 80 58 303 291 308 245 9 196 195 204 214 220 226 234 243 250 259 274 288 283 284 295 305 310 316 317 319 317 318 319 319 323 327 326 326 330 329 326 325 327 328 328 324 320 315 309 305
289 266 239 238 176 210 313 269 155 163 207 209 213 220 229 238 244 251 265 274 279 281 284 288 293 298 303 306 310 313 313 312 313 318 322 323 322 324 323 321 321 324 326 327 325 321 316 309 302
Wind_Speed_850mb
11 11 9 5 12 11 11 10 10 13 12 29 37 26 35 37 11 9 32 26 21 11 12 9 9 6 5 2 4 6 7 8 10 11 12 13 12 10 6 4 6 3 3 8 10 12 9 2 4
4 10 13 13 13 20 13 11 16 21 19 12 25 22 35 14 29 21 19 35 26 20 12 11 7 8 5 3 5 7 6 7 9 11 14 15 13 11 7 2 3 3 3 6 9 12 9 6 4
10 14 2 11 11 7 15 16 18 18 27 23 16 35 15 24 34 33 39 29 23 21 20 16 14 12 15 13 6 7 7 9 11 13 17 20 19 16 10 5 6 9 9 0 6 8 11 10 8
11 6 17 6 13 27 19 25 31 23 20 28 28 25 22 33 31 37 28 24 28 26 26 18 13 13 13 14 13 11 10 12 12 15 17 18 18 17 16 11 3 12 15 18 10 12 14 13 12
12 13 11 8 24 19 29 31 42 29 11 42 13 13 14 42 29 25 21 34 37 36 32 18 15 14 14 11 11 7 10 9 13 16 18 20 20 20 19 16 12 4 11 26 27 19 15 15 16
10 9 8 13 10 14 26 46 24 34 41 34 26 19 18 37 35 47 38 45 42 41 34 19 11 9 11 10 8 4 5 4 6 7 11 18 21 20 19 18 17 15 11 8 10 8 10 15 19
10 3 7 18 22 8 14 19 38 33 34 37 23 14 14 47 48 57 65 51 50 48 39 13 5 7 9 9 9 6 3 1 3 6 9 11 16 23 22 23 18 16 15 16 15 13 14 18 21
12 7 9 10 8 10 19 17 45 29 52 13 17 21 14 34 46 63 62 70 66 60 45 28 20 9 5 6 5 7 7 7 9 8 10 9 10 14 23 24 21 23 23 21 19 20 21 20 20
10 7 6 7 7 15 19 19 36 46 67 73 43 41 26 28 48 58 71 69 66 75 62 50 37 37 12 11 4 7 7 9 13 15 14 13 6 2 5 15 11 16 23 25 27 27 26 24 24
17 8 16 19 26 21 36 26 20 24 39 48 51 43 39 39 52 64 65 76 75 69 73 60 52 51 40 34 24 16 7 5 7 13 17 18 17 17 19 21 19 18 17 24 29 27 29 29 25
14 11 23 36 52 47 46 65 22 13 22 36 37 39 38 51 63 73 66 63 72 67 58 66 62 52 47 45 46 38 35 32 17 14 5 9 18 22 20 26 29 27 23 20 15 19 26 24 24
18 45 21 25 31 34 39 35 50 50 31 26 27 32 40 54 69 65 69 70 61 67 62 54 56 56 52 48 44 39 41 49 38 35 28 18 13 17 22 25 30 32 33 36 34 27 27 34 37
32 41 57 67 69 67 62 52 36 48 40 43 43 50 55 57 64 63 63 65 65 66 66 64 50 49 51 50 49 49 45 39 42 47 39 33 32 24 23 24 24 27 35 36 43 45 46 42 34
32 52 44 51 47 40 43 34 12 27 37 39 36 52 46 55 57 54 53 57 59 61 61 58 56 53 46 44 45 43 43 40 36 38 38 34 35 34 31 32 26 22 23 25 34 44 47 49 53
43 27 31 31 10 8 7 40 19 14 17 22 26 31 41 41 47 53 54 50 55 54 53 51 51 50 49 50 50 49 44 43 38 42 40 37 38 36 36 36 35 36 34 31 28 27 31 42 52
15 10 9 27 5 6 7 10 16 15 18 23 23 25 27 32 37 37 40 44 48 48 49 48 47 48 49 51 52 51 51 49 49 47 48 46 45 42 41 41 41 41 40 39 38 38 40 41 41
6 17 20 10 13 5 6 17 16 12 17 22 22 24 26 29 32 32 34 40 42 42 41 46 48 47 47 47 49 47 47 49 50 50 50 50 49 50 50 50 50 49 47 47 48 46 46 47 44
13 16 18 17 21 31 34 28 18 12 13 17 19 20 23 28 31 32 34 36 39 39 42 43 50 51 49 49 43 42 42 47 48 50 51 50 51 53 54 55 54 54 53 53 52 53 51 52 56
22 27 27 19 5 19 24 23 18 14 10 10 14 16 19 22 23 26 29 28 32 38 41 45 48 53 55 57 53 45 40 46 46 50 55 57 58 57 56 55 56 57 60 61 60 59 58 58 63
23 25 22 17 11 15 18 16 14 13 9 7 7 8 10 13 19 22 24 28 23 27 33 39 43 48 53 55 54 49 42 42 47 52 57 61 61 62 62 63 62 61 61 60 61 63 65 59 61
23 14 5 11 17 16 13 14 18 17 14 14 11 6 2 5 13 18 23 24 23 20 27 32 36 41 47 49 50 49 47 46 51 56 59 61 63 64 66 67 66 64 63 63 63 63 63 65 58
9 8 18 15 3 4 4 2 19 21 19 22 19 14 9 2 9 16 22 24 22 19 19 24 28 34 39 44 48 50 50 49 50 51 57 60 62 63 65 66 66 66 66 65 64 62 61 60 62
9 7 7 4 7 2 3 5 10 21 22 27 29 23 16 8 5 17 22 22 20 19 15 19 23 27 32 37 43 46 48 48 48 51 57 60 62 63 66 69 68 68 67 66 67 66 63 57 57
13 7 5 2 3 4 6 4 12 15 32 23 36 31 24 18 9 9 17 18 16 17 16 17 19 24 28 32 38 43 47 51 54 55 57 60 59 65 67 72 72 70 69 69 69 67 65 63 59
6 6 2 5 4 3 5 6 9 17 6 17 27 32 28 21 15 9 14 15 14 16 18 20 21 23 27 30 34 39 44 50 54 54 55 58 62 68 70 72 75 74 72 71 70 69 68 65 62
6 5 6 6 5 5 3 8 4 6 7 9 11 25 27 24 19 12 14 17 17 18 20 22 24 26 28 30 33 38 41 46 50 53 53 54 55 65 70 72 73 72 71 72 73 74 71 67 66
4 1 4 6 2 5 1 7 10 11 13 18 18 25 29 27 24 21 16 20 20 20 21 22 24 26 28 31 35 40 42 46 51 57 59 57 61 66 70 71 73 71 73 75 75 74 75 72 70
5 8 4 4 6 8 5 7 7 19 24 23 28 32 30 28 28 27 22 21 25 24 23 23 22 24 28 32 37 42 45 48 53 58 62 61 64 70 71 72 70 71 73 76 77 79 78 73 72
6 5 3 3 2 5 8 2 3 14 21 26 34 32 30 29 29 28 30 27 32 30 29 29 29 29 30 33 39 45 48 51 54 59 64 64 69 72 73 71 70 72 77 80 81 81 80 73 74
5 3 6 5 7 2 3 13 5 7 10 21 26 27 27 28 28 28 30 33 33 33 33 37 40 43 41 39 42 46 50 54 56 59 64 68 69 70 71 68 68 72 75 79 83 85 82 77 74
Wind_Direction_850mb
325 322 358 289 233 229 115 76 68 51 71 21 52 59 94 59 18 74 331 335 29 67 41 64 204 204 216 204 124 100 86 62 50 47 44 40 33 29 34 100 118 147 16 304 313 319 313 263 159
306 246 11 292 249 197 127 44 65 44 351 295 50 73 45 76 25 334 2 360 31 62 74 93 163 164 147 147 123 105 85 57 47 31 23 25 28 27 14 343 192 177 81 27 336 340 308 242 201
213 351 97 342 308 351 114 40 357 349 20 15 109 55 46 351 347 349 345 358 41 78 80 89 160 162 142 133 104 54 61 49 31 24 20 16 16 18 21 357 233 218 232 45 347 332 308 264 235
143 100 63 24 100 47 42 25 352 347 19 30 95 69 82 17 354 345 351 34 59 75 83 101 148 167 154 135 109 81 34 31 28 24 19 17 17 21 20 18 318 233 236 240 249 276 284 251 254
109 77 89 95 83 79 54 26 25 38 76 31 68 77 68 5 17 22 40 61 70 67 81 104 122 157 135 142 102 101 96 65 38 28 18 15 15 14 16 16 16 7 251 250 263 266 272 259 263
59 73 104 154 129 38 44 31 34 44 51 21 64 85 55 0 36 48 59 70 66 68 83 91 138 157 146 161 162 151 119 82 39 54 37 20 16 13 12 9 5 359 354 334 326 330 264 263 272
94 74 69 123 136 72 28 10 29 37 33 26 44 74 58 27 44 54 58 61 67 76 75 95 84 129 150 164 176 201 237 276 337 353 6 25 28 8 4 0 355 352 345 343 336 316 294 284 285
76 66 104 48 140 73 33 70 48 49 33 36 40 37 26 14 50 53 63 59 68 69 77 82 75 128 147 162 188 227 244 261 293 313 329 353 20 23 354 355 341 339 337 332 322 316 310 305 302
87 79 66 105 79 126 104 97 62 68 66 62 69 65 56 45 51 63 50 61 60 62 65 70 69 65 76 79 124 172 227 248 267 275 290 307 301 293 272 283 309 326 327 323 322 318 312 307 304
52 53 35 69 69 79 71 74 68 62 46 48 51 51 48 51 53 53 51 49 47 55 51 56 61 58 61 64 68 59 52 352 288 284 272 281 292 294 300 302 305 316 320 319 319 317 312 309 322
48 81 103 79 91 84 76 57 58 31 43 31 23 28 40 49 59 56 55 52 53 50 50 51 49 52 46 53 51 56 50 42 24 33 318 281 283 290 289 296 296 295 291 299 282 300 312 294 286
102 61 74 74 79 83 65 80 63 62 57 74 62 48 50 55 59 51 54 55 53 56 51 50 45 43 47 46 44 39 42 37 30 33 35 22 315 309 312 310 300 297 290 284 287 288 287 293 292
68 86 84 91 88 85 86 73 73 57 64 70 69 71 61 58 60 61 58 59 54 53 53 48 49 47 41 41 44 43 38 37 32 34 28 13 11 11 5 8 353 330 301 285 276 278 278 280 283
112 95 89 86 90 92 80 56 70 47 62 68 62 64 65 64 65 61 50 52 51 53 52 52 52 52 51 49 51 49 45 35 32 31 33 25 25 21 14 8 352 345 330 314 296 286 282 277 276
114 96 81 41 134 143 309 44 72 75 95 72 62 56 50 45 47 47 49 52 52 49 50 51 54 51 52 51 50 48 45 45 39 35 28 24 16 14 8 6 4 3 359 342 329 315 297 286 288
119 98 63 12 123 20 185 80 81 93 111 93 92 84 76 61 55 50 46 43 46 51 51 48 49 50 49 51 50 46 42 42 40 34 32 29 24 20 15 9 1 356 349 345 343 334 312 306 297
164 96 104 73 50 39 65 132 111 77 92 85 73 67 61 56 52 48 47 46 43 43 43 45 48 50 50 49 46 44 41 38 35 31 28 24 21 20 19 16 12 6 360 352 344 339 336 330 320
120 106 64 81 59 87 99 119 119 101 88 81 85 75 62 51 42 34 34 43 46 48 47 46 43 42 40 42 42 38 32 34 31 29 26 22 19 16 13 11 9 7 3 359 354 348 344 338 327
80 99 105 102 57 75 104 123 131 135 124 101 81 71 59 52 41 38 38 34 37 41 42 39 37 36 35 34 36 34 29 23 23 21 19 17 15 12 10 8 6 3 1 359 356 352 348 347 342
84 95 97 86 79 114 134 132 146 169 164 161 138 107 68 48 34 32 34 32 32 33 37 37 33 30 31 33 33 35 33 23 23 20 18 16 14 10 7 4 2 359 356 354 353 351 348 348 353
48 65 71 106 106 104 161 173 188 192 200 209 213 186 144 45 27 25 27 24 26 27 30 31 28 26 26 28 27 28 26 21 16 16 14 13 10 8 5 1 358 355 352 350 349 347 347 342 344
72 10 100 117 258 49 279 28 204 190 214 224 221 211 206 121 30 20 19 20 21 19 21 21 18 20 19 20 20 20 19 13 11 7 7 7 6 4 2 358 355 352 348 345 342 341 339 337 335
107 192 63 45 69 245 156 257 94 185 224 226 223 219 214 207 32 12 8 7 7 8 5 5 4 6 9 11 12 14 13 9 5 1 1 1 1 1 359 357 353 350 345 341 338 335 333 331 326
126 153 164 176 132 237 144 289 164 186 223 219 213 212 213 215 231 346 354 353 352 355 355 348 347 350 355 360 1 3 4 2 0 357 356 354 354 354 352 351 350 347 343 339 335 331 328 325 320
271 259 232 204 218 28 119 248 308 191 195 223 205 207 212 217 230 276 333 336 344 348 341 335 333 336 341 346 350 351 354 355 354 353 348 347 348 348 346 345 344 342 340 338 334 329 325 321 316
27 334 330 303 318 21 153 227 128 147 195 192 218 207 211 217 229 261 314 324 329 336 337 333 327 327 329 332 335 338 342 344 345 343 342 342 337 340 340 339 338 337 336 335 332 328 325 320 313
100 238 54 93 111 262 116 227 184 179 204 206 207 202 213 222 233 248 285 314 312 318 327 329 325 320 318 320 323 326 331 334 335 337 338 335 335 335 334 335 333 332 331 330 327 324 321 318 314
318 115 190 165 306 283 173 268 254 205 213 204 213 217 223 230 238 245 262 289 300 295 299 311 319 322 319 318 317 318 322 326 329 330 331 331 330 331 332 331 330 329 329 329 326 322 318 313 310
157 178 80 58 303 291 308 245 9 196 195 204 214 220 226 234 243 250 259 274 288 283 284 295 305 310 316 317 319 317 318 319 319 323 327 326 326 330 329 326 325 327 328 328 324 320 315 309 305
289 266 239 238 176 210 313 269 155 163 207 209 213 220 229 238 244 251 265 274 279 281 284 288 293 298 303 306 310 313 313 312 313 318 322 323 322 324 323 321 321 324 326 327 325 321 316 309 302